Time,TemperatureF,DewpointF,PressureIn,WindDirection,WindDirectionDegrees,WindSpeedMPH,WindSpeedGustMPH,Humidity,HourlyPrecipIn,Conditions,Clouds,dailyrainin,SoftwareType,DateUTC
2013-07-08 00:02:00,71.0,-99.9,-100.00,North,-999,-999.0,-999.0,-999,0.00,,,0.38,,2013-07-08 04:02:00,
2013-07-08 00:12:00,71.0,-99.9,-100.00,North,-999,-999.0,-999.0,-999,0.00,,,0.38,,2013-07-08 04:12:00,
2013-07-08 00:22:00,71.0,-99.9,-100.00,North,-999,-999.0,-999.0,-999,0.00,,,0.38,,2013-07-08 04:22:00,
2013-07-08 00:30:00,71.0,-99.9,-100.00,North,-999,-999.0,-999.0,-999,0.00,,,0.38,,2013-07-08 04:30:00,
2013-07-08 01:02:00,71.0,-99.9,-100.00,North,-999,-999.0,-999.0,-999,0.00,,,0.38,,2013-07-08 05:02:00,
2013-07-08 01:12:00,71.0,-99.9,-100.00,North,-999,-999.0,-999.0,-999,0.00,,,0.38,,2013-07-08 05:12:00,
2013-07-08 01:22:00,71.0,-99.9,-100.00,North,-999,-999.0,-999.0,-999,0.00,,,0.38,,2013-07-08 05:22:00,
2013-07-08 01:30:00,71.0,-99.9,-100.00,North,-999,-999.0,-999.0,-999,0.00,,,0.38,,2013-07-08 05:30:00,
2013-07-08 02:02:00,71.0,-99.9,-100.00,North,-999,-999.0,-999.0,-999,0.00,,,0.38,,2013-07-08 06:02:00,
2013-07-08 02:12:00,71.0,-99.9,-100.00,North,-999,-999.0,-999.0,-999,0.00,,,0.38,,2013-07-08 06:12:00,
2013-07-08 02:22:00,71.0,-99.9,-100.00,North,-999,-999.0,-999.0,-999,0.00,,,0.38,,2013-07-08 06:22:00,
2013-07-08 02:30:00,71.0,-99.9,-100.00,North,-999,-999.0,-999.0,-999,0.00,,,0.38,,2013-07-08 06:30:00,
2013-07-08 03:02:00,71.0,-99.9,-100.00,North,-999,-999.0,-999.0,-999,0.00,,,0.38,,2013-07-08 07:02:00,
2013-07-08 03:12:00,71.0,-99.9,-100.00,North,-999,-999.0,-999.0,-999,0.00,,,0.38,,2013-07-08 07:12:00,
2013-07-08 03:22:00,71.0,-99.9,-100.00,North,-999,-999.0,-999.0,-999,0.00,,,0.38,,2013-07-08 07:22:00,
2013-07-08 03:30:00,71.0,-99.9,-100.00,North,-999,-999.0,-999.0,-999,0.00,,,0.38,,2013-07-08 07:30:00,
2013-07-08 04:02:00,71.0,-99.9,-100.00,North,-999,-999.0,-999.0,-999,0.00,,,0.38,,2013-07-08 08:02:00,
2013-07-08 04:12:00,71.0,-99.9,-100.00,North,-999,-999.0,-999.0,-999,0.00,,,0.38,,2013-07-08 08:12:00,
2013-07-08 04:22:00,71.0,-99.9,-100.00,North,-999,-999.0,-999.0,-999,0.00,,,0.38,,2013-07-08 08:22:00,
2013-07-08 04:30:00,71.0,-99.9,-100.00,North,-999,-999.0,-999.0,-999,0.00,,,0.38,,2013-07-08 08:30:00,
2013-07-08 05:02:00,71.0,-99.9,-100.00,North,-999,-999.0,-999.0,-999,0.00,,,0.38,,2013-07-08 09:02:00,
2013-07-08 05:12:00,71.0,-99.9,-100.00,North,-999,-999.0,-999.0,-999,0.00,,,0.38,,2013-07-08 09:12:00,
2013-07-08 05:22:00,71.0,-99.9,-100.00,North,-999,-999.0,-999.0,-999,0.00,,,0.38,,2013-07-08 09:22:00,
2013-07-08 05:30:00,71.0,-99.9,-100.00,North,-999,-999.0,-999.0,-999,0.00,,,0.38,,2013-07-08 09:30:00,
2013-07-08 06:02:00,71.0,-99.9,-100.00,North,-999,-999.0,-999.0,-999,0.00,,,0.38,,2013-07-08 10:02:00,
2013-07-08 06:12:00,71.0,-99.9,-100.00,North,-999,-999.0,-999.0,-999,0.00,,,0.38,,2013-07-08 10:12:00,
2013-07-08 06:22:00,71.0,-99.9,-100.00,North,-999,-999.0,-999.0,-999,0.00,,,0.38,,2013-07-08 10:22:00,
2013-07-08 06:30:00,71.0,-99.9,-100.00,North,-999,-999.0,-999.0,-999,0.00,,,0.38,,2013-07-08 10:30:00,
2013-07-08 07:02:00,71.0,-99.9,-100.00,North,-999,-999.0,-999.0,-999,0.00,,,0.38,,2013-07-08 11:02:00,
2013-07-08 07:11:00,71.0,-99.9,-100.00,North,-999,-999.0,-999.0,-999,0.00,,,0.38,,2013-07-08 11:11:00,
2013-07-08 07:23:00,71.0,-99.9,-100.00,North,-999,-999.0,-999.0,-999,0.00,,,0.38,,2013-07-08 11:23:00,
2013-07-08 07:30:00,73.0,-99.9,-100.00,North,-999,-999.0,-999.0,-999,0.00,,,0.38,,2013-07-08 11:30:00,
2013-07-08 08:02:00,73.0,-99.9,-100.00,North,-999,-999.0,-999.0,-999,0.00,,,0.38,,2013-07-08 12:02:00,
2013-07-08 08:12:00,73.0,-99.9,-100.00,North,-999,-999.0,-999.0,-999,0.00,,,0.38,,2013-07-08 12:12:00,
2013-07-08 08:22:00,73.0,-99.9,-100.00,North,-999,-999.0,-999.0,-999,0.00,,,0.38,,2013-07-08 12:22:00,
2013-07-08 08:30:00,75.0,-99.9,-100.00,North,-999,-999.0,-999.0,-999,0.00,,,0.38,,2013-07-08 12:30:00,
2013-07-08 09:02:00,75.0,-99.9,-100.00,North,-999,-999.0,-999.0,-999,0.00,,,0.38,,2013-07-08 13:02:00,
2013-07-08 09:12:00,75.0,-99.9,-100.00,North,-999,-999.0,-999.0,-999,0.00,,,0.38,,2013-07-08 13:12:00,
2013-07-08 09:22:00,75.0,-99.9,-100.00,North,-999,-999.0,-999.0,-999,0.00,,,0.38,,2013-07-08 13:22:00,
2013-07-08 09:30:00,79.0,-99.9,-100.00,North,-999,-999.0,-999.0,-999,0.00,,,0.38,,2013-07-08 13:30:00,
2013-07-08 10:12:00,79.0,-99.9,-100.00,North,-999,-999.0,-999.0,-999,0.00,,,0.38,,2013-07-08 14:12:00,
2013-07-08 10:23:00,79.0,-99.9,-100.00,North,-999,-999.0,-999.0,-999,0.00,,,0.38,,2013-07-08 14:23:00,
2013-07-08 10:30:00,78.0,-99.9,-100.00,North,-999,-999.0,-999.0,-999,0.00,,,0.38,,2013-07-08 14:30:00,
2013-07-08 11:12:00,78.0,-99.9,-100.00,North,-999,-999.0,-999.0,-999,0.00,,,0.38,,2013-07-08 15:12:00,
2013-07-08 11:22:00,78.0,-99.9,-100.00,North,-999,-999.0,-999.0,-999,0.00,,,0.38,,2013-07-08 15:22:00,
2013-07-08 11:30:00,79.0,-99.9,-100.00,North,-999,-999.0,-999.0,-999,0.00,,,0.38,,2013-07-08 15:30:00,
2013-07-08 12:02:00,79.0,-99.9,-100.00,North,-999,-999.0,-999.0,-999,0.00,,,0.38,,2013-07-08 16:02:00,
2013-07-08 12:12:00,79.0,-99.9,-100.00,North,-999,-999.0,-999.0,-999,0.00,,,0.38,,2013-07-08 16:12:00,
2013-07-08 12:22:00,79.0,-99.9,-100.00,North,-999,-999.0,-999.0,-999,0.00,,,0.38,,2013-07-08 16:22:00,
2013-07-08 12:30:00,83.0,-99.9,-100.00,North,-999,-999.0,-999.0,-999,0.00,,,0.38,,2013-07-08 16:30:00,
2013-07-08 13:16:00,83.0,-99.9,-100.00,North,-999,-999.0,-999.0,-999,0.00,,,0.38,,2013-07-08 17:16:00,
2013-07-08 13:30:00,79.0,-99.9,-100.00,North,-999,-999.0,-999.0,-999,0.00,,,0.38,,2013-07-08 17:30:00,
2013-07-08 14:30:00,79.0,-99.9,-100.00,North,-999,-999.0,-999.0,-999,0.00,,,0.38,,2013-07-08 18:30:00,
2013-07-08 15:19:00,79.0,-99.9,-100.00,North,-999,-999.0,-999.0,-999,0.00,,,0.38,,2013-07-08 19:19:00,
2013-07-08 15:30:00,73.0,-99.9,-100.00,North,-999,-999.0,-999.0,-999,0.14,,,0.52,,2013-07-08 19:30:00,
2013-07-08 16:24:00,73.0,-99.9,-100.00,North,-999,-999.0,-999.0,-999,0.14,,,0.52,,2013-07-08 20:24:00,
2013-07-08 16:30:00,72.0,-99.9,-100.00,North,-999,-999.0,-999.0,-999,0.03,,,0.55,,2013-07-08 20:30:00,
2013-07-08 17:26:00,72.0,-99.9,-100.00,North,-999,-999.0,-999.0,-999,0.03,,,0.55,,2013-07-08 21:26:00,
2013-07-08 17:30:00,72.0,-99.9,-100.00,North,-999,-999.0,-999.0,-999,0.00,,,0.55,,2013-07-08 21:30:00,
2013-07-08 18:30:00,67.0,-99.9,-100.00,North,-999,-999.0,-999.0,-999,0.16,,,0.66,,2013-07-08 22:30:00,
2013-07-08 19:30:00,66.0,-99.9,-100.00,North,-999,-999.0,-999.0,-999,0.05,,,0.64,,2013-07-08 23:30:00,
2013-07-08 20:30:00,66.0,-99.9,-100.00,North,-999,-999.0,-999.0,-999,0.07,,,0.45,,2013-07-09 00:30:00,
2013-07-08 22:30:00,64.0,-99.9,-100.00,North,-999,-999.0,-999.0,-999,0.00,,,0.45,,2013-07-09 02:30:00,
2013-07-08 23:30:00,65.0,-99.9,-100.00,North,-999,-999.0,-999.0,-999,0.03,,,0.48,,2013-07-09 03:30:00,